Location: Newark
(12.5331°N, 56.4669°W)
Time: 18:55:24
(UTC+00:00)

Envisat - Pass Details

Date: 27 January 2020
Orbit: 764 x 766 km, 98.1° (Epoch: 17 February)

Event Time Altitude Azimuth Distance (km) Brightness Sun altitude
Rises 22:44:46 0° 195° (SSW) 3,219 6.7 -14.7°
Reaches altitude 10° 22:47:32 10° 210° (SSW) 2,293 6.1 -15.3°
Maximum altitude 22:51:23 22° 260° (W) 1,617 5.7 -16.3°
Drops below altitude 10° 22:55:15 10° 310° (NW) 2,294 5.9 -17.2°
Sets 22:58:02 0° 326° (NW) 3,219 6.5 -17.8°
